EW5586 Weather Reports


time (UTC)temp
F
wind
direction
speed
knots
gust
knots
rain 1hr
in
rain 24hr
in
rain mn
in
humidity
%
barometer
mb
20260904175650 74 355 0.0 0.0 0.00 0.00 0.00 70 1012.3
20260904175147 75 340 0.0 3.5 0.00 0.00 0.00 69 1012.3
20260904174647 75 0 0.9 8.7 0.00 0.00 0.00 69 1012.4
20260904174148 75 22 0.9 8.7 0.00 0.00 0.00 70 1012.5
20260904173645 76 355 0.0 0.0 0.00 0.00 0.00 69 1012.5
20260904173145 76 0 0.9 6.1 0.00 0.00 0.00 71 1012.5
20260904172646 75 351 2.6 9.6 0.00 0.00 0.00 72 1012.5
20260904172145 75 5 4.3 9.6 0.00 0.00 0.00 70 1012.6
20260904171646 76 0 3.5 9.6 0.00 0.00 0.00 67 1012.6
20260904170645 76 350 3.5 9.6 0.00 0.00 0.00 69 1012.5
20260904170143 76 17 3.5 9.6 0.00 0.00 0.00 70 1012.5
20260904165644 76 0 1.7 8.7 0.00 0.00 0.00 70 1012.5
20260904165143 75 26 1.7 6.1 0.00 0.00 0.00 73 1012.5
20260904164143 74 13 1.7 7.8 0.00 0.00 0.00 70 1012.7
20260904163644 74 355 1.7 5.2 0.00 0.00 0.00 73 1012.6
20260904163141 74 5 1.7 5.2 0.00 0.00 0.00 74 1012.7
20260904162642 74 346 1.7 8.7 0.00 0.00 0.00 71 1012.8
20260904162141 74 248 2.6 8.7 0.00 0.00 0.00 74 1012.8
20260904161640 74 11 2.6 8.7 0.00 0.00 0.00 71 1012.8
20260904161139 74 11 1.7 8.7 0.00 0.00 0.00 73 1012.8
20260904160639 74 5 2.6 7.0 0.00 0.00 0.00 71 1012.8
20260904160137 74 355 1.7 7.0 0.00 0.00 0.00 70 1012.7
20260904155640 75 331 0.0 3.5 0.00 0.00 0.00 74 1012.8
20260904155138 75 5 0.9 4.3 0.00 0.00 0.00 72 1012.7
20260904154635 74 355 1.7 6.1 0.00 0.00 0.00 74 1012.7
20260904154135 74 29 1.7 6.1 0.00 0.00 0.00 71 1012.7
20260904153635 75 263 0.9 6.1 0.00 0.00 0.00 74 1012.7
20260904153137 74 355 0.9 6.1 0.00 0.00 0.00 73 1012.7
20260904152131 74 334 0.9 6.1 0.00 0.00 0.00 77 1012.7
20260904151629 74 12 0.0 6.1 0.00 0.00 0.00 76 1012.8
20260904151129 74 0 0.9 7.0 0.00 0.00 0.00 76 1012.9
20260904150629 74 340 0.9 7.0 0.00 0.00 0.00 76 1012.9
20260904150130 74 9 0.0 7.0 0.00 0.00 0.00 76 1012.9
20260904145629 74 220 0.0 4.3 0.00 0.00 0.00 80 1012.9
20260904145129 73 336 0.9 4.3 0.00 0.00 0.00 78 1012.9
20260904143629 72 319 0.9 7.8 0.00 0.00 0.00 80 1013.0
20260904142625 70 274 2.6 8.7 0.00 0.00 0.00 84 1013.2
20260904142125 70 346 2.6 10.4 0.00 0.00 0.00 83 1013.1
20260904141625 69 320 1.7 10.4 0.00 0.00 0.00 83 1013.2
20260904141125 69 47 2.6 7.8 0.00 0.00 0.00 85 1013.2
20260904135625 68 14 0.9 4.3 0.00 0.00 0.00 89 1013.2
20260904134626 67 346 0.0 5.2 0.00 0.00 0.00 90 1013.1
20260904134121 66 355 0.0 0.0 0.00 0.00 0.00 91 1013.1
20260904132121 65 350 0.0 0.0 0.00 0.00 0.00 93 1013.1
20260904131121 65 302 0.0 0.0 0.00 0.00 0.00 93 1013.0
20260904130621 65 0 0.0 0.0 0.00 0.00 0.00 93 1013.0
20260904130122 64 5 0.0 0.0 0.00 0.00 0.00 94 1012.9
20260904125617 64 19 0.0 0.0 0.00 0.00 0.00 94 1013.0
20260904125118 64 339 0.0 0.0 0.00 0.00 0.00 95 1013.0
20260904124617 64 12 0.0 0.0 0.00 0.00 0.00 95 1013.1
20260904124117 64 0 0.0 0.0 0.00 0.00 0.00 95 1013.2
20260904123618 64 340 0.0 0.0 0.00 0.00 0.00 95 1013.1
20260904123117 63 332 0.0 0.0 0.00 0.00 0.00 96 1013.0
20260904122618 63 10 0.0 0.0 0.00 0.00 0.00 96 1012.9
20260904122118 63 330 0.0 0.0 0.00 0.00 0.00 96 1013.1
20260904121617 63 355 0.0 0.0 0.00 0.00 0.00 96 1013.0
20260904121113 62 355 0.0 0.0 0.00 0.00 0.00 96 1013.0
20260904120613 62 355 0.0 0.0 0.00 0.00 0.00 96 1013.0
20260904120114 62 355 0.0 0.0 0.00 0.00 0.00 96 1013.0
20260904115612 62 17 0.0 0.0 0.00 0.00 0.00 96 1013.0
20260904115112 62 18 0.0 0.0 0.00 0.00 0.00 96 1013.0
20260904114110 62 0 0.0 0.0 0.00 0.00 0.00 96 1012.9
20260904113607 61 15 0.0 0.0 0.00 0.00 0.00 96 1012.7
20260904113106 61 5 0.0 0.0 0.00 0.00 0.00 96 1012.8
20260904112608 61 0 0.0 0.0 0.00 0.00 0.00 96 1012.8
20260904112105 61 355 0.0 0.0 0.00 0.00 0.00 96 1012.8
20260904111601 61 355 0.0 0.0 0.00 0.00 0.00 96 1012.8
20260904111059 61 355 0.0 0.0 0.00 0.00 0.00 96 1012.7
20260904110559 61 355 0.0 0.0 0.00 0.00 0.00 96 1012.7
20260904105549 0 355 0.0 0.0 0.00 0.00 0.00 1012.6
20260904105023 0 0.0 0.0 0.00 0.00 0.00 1012.6
20260904104521 0 0.0 0.0 0.00 0.00 0.00 1012.5
20260904102325 0 0.0 0.0 0.00 0.00 0.00 1012.1
20260904101821 0 0.0 0.0 0.00 0.00 0.00 1012.1
20260904101225 0 0.0 0.0 0.00 0.00 0.00 1012.1
20260904100215 0 0.0 0.0 0.00 0.00 0.00 1012.1
20260904095713 0 0.0 0.0 0.00 0.00 0.00 1012.1
20260904094616 0 0.0 0.0 0.00 0.00 0.00 1011.9
20260904094020 0 0.0 0.0 0.00 0.00 0.00 1011.9
20260904093519 0 0.0 0.0 0.00 0.00 0.00 1011.8
20260904093009 0 0.0 0.0 0.00 0.00 0.00 1011.8
20260904092423 0 0.0 0.0 0.00 0.00 0.00 1011.8
20260904091921 0 0.0 0.0 0.00 0.00 0.00 1011.8
20260904091412 0 0.0 0.0 0.00 0.00 0.00 1011.7
20260904090824 0 0.0 0.0 0.00 0.00 0.00 1011.7
20260904090317 0 0.0 0.0 0.00 0.00 0.00 1011.6
20260904085215 0 0.0 0.0 0.00 0.00 0.00 1011.6
20260904084628 0 0.0 0.0 0.00 0.00 0.00 1011.6
20260904084108 0 0.0 0.0 0.00 0.00 0.00 1011.5
20260904083525 0 0.0 0.0 0.00 0.00 0.00 1011.5
20260904083014 0 0.0 0.0 0.00 0.00 0.00 1011.5
20260904081905 0 0.0 0.0 0.00 0.00 0.00 1011.5
20260904081316 62 0.0 0.0 0.00 0.00 0.00 96 1011.5
20260904080725 62 9 0.0 0.0 0.00 0.00 0.00 96 1011.5
20260904080220 62 9 0.0 0.0 0.00 0.00 0.00 96 1011.4
20260904075714 62 9 0.0 0.0 0.00 0.00 0.00 96 1011.4
20260904075208 62 5 0.0 0.0 0.00 0.00 0.00 96 1011.4
20260904074703 62 355 0.0 0.0 0.00 0.00 0.00 96 1011.4
20260904074157 62 0 0.0 0.0 0.00 0.00 0.00 96 1011.5
20260904073144 62 348 0.0 0.0 0.00 0.00 0.00 95 1011.5
20260904072638 62 5 0.0 0.0 0.00 0.00 0.00 95 1011.6
20260904071627 62 10 0.0 0.0 0.00 0.00 0.00 95 1011.6
20260904071120 62 0 0.0 0.0 0.00 0.00 0.00 95 1011.6
20260904070615 62 0 0.0 0.0 0.00 0.00 0.00 95 1011.6
20260904065603 62 0 0.0 0.0 0.00 0.00 0.00 95 1011.6
20260904065055 62 0 0.0 0.0 0.00 0.00 0.00 95 1011.6
20260904064550 63 0 0.0 0.0 0.00 0.00 0.00 95 1011.7
20260904064044 63 0 0.0 0.0 0.00 0.00 0.00 95 1011.7
20260904063538 63 0 0.0 0.0 0.00 0.00 0.00 95 1011.7
20260904063031 63 0 0.0 0.0 0.00 0.00 0.00 95 1011.7
20260904062528 63 0 0.0 0.0 0.00 0.00 0.00 95 1011.7
20260904062020 63 0 0.0 0.0 0.00 0.00 0.00 95 1011.7
20260904061514 63 0 0.0 0.0 0.00 0.00 0.00 95 1011.7
20260904061008 63 0 0.0 0.0 0.00 0.00 0.00 95 1011.6
20260904060502 63 0 0.0 0.0 0.00 0.00 0.00 95 1011.6
20260904055955 64 355 0.0 0.0 0.00 0.00 0.00 95 1011.6
20260904055450 64 9 0.0 0.0 0.00 0.00 0.00 95 1011.7
20260904054945 64 0 0.0 0.0 0.00 0.00 0.00 95 1011.7
20260904054438 64 0 0.0 0.0 0.00 0.00 0.00 95 1011.8
20260904053933 64 0 0.0 0.0 0.00 0.00 0.00 95 1011.8
20260904053426 64 0 0.0 0.0 0.00 0.00 0.00 95 1011.7
20260904052921 64 0 0.0 0.0 0.00 0.00 0.00 95 1011.7
20260904052414 64 0 0.0 0.0 0.00 0.00 0.00 95 1011.7
20260904051908 64 0 0.0 0.0 0.00 0.00 0.00 95 1011.6
20260904051402 64 0 0.0 0.0 0.00 0.00 0.00 95 1011.7
20260904050402 64 0 0.0 0.0 0.00 0.00 0.00 95 1011.7
20260904045400 64 0 0.0 0.0 0.00 0.00 0.00 95 1011.7
20260904044901 64 0 0.0 0.0 0.00 0.00 0.00 95 1011.7
20260904044400 65 0 0.0 0.0 0.00 0.00 0.00 95 1011.7
20260904043858 65 0 0.0 0.0 0.00 0.00 0.00 94 1011.8
20260904043356 65 0 0.0 0.0 0.00 0.00 0.00 95 1011.7
20260904042856 65 0 0.0 0.0 0.00 0.00 0.00 95 1011.6
20260904042357 65 0 0.0 0.0 0.00 0.00 0.00 95 1011.6
20260904041856 65 0 0.0 0.0 0.00 0.00 0.00 95 1011.7
20260904041356 65 0 0.0 0.0 0.00 0.00 0.00 95 1011.6
20260904040854 65 0 0.0 0.0 0.00 0.00 0.00 94 1011.6
20260904035855 65 0 0.0 0.0 0.00 0.00 0.00 94 1011.6
20260904035352 65 0 0.0 0.0 0.00 0.00 0.00 94 1011.6
20260904034854 65 5 0.0 0.0 0.00 0.00 0.00 94 1011.7
20260904034348 65 5 0.0 0.0 0.00 0.00 0.00 94 1011.7
20260904033346 66 5 0.0 0.0 0.00 0.00 0.00 94 1011.6
20260904032345 66 5 0.0 0.0 0.00 0.00 0.00 94 1011.6
20260904031344 66 5 0.0 0.0 0.00 0.00 0.00 94 1011.6
20260904030845 66 5 0.0 0.0 0.00 0.00 0.00 94 1011.6
20260904030344 66 9 0.0 0.0 0.00 0.00 0.00 94 1011.6
20260904025843 66 9 0.0 0.0 0.00 0.00 0.00 93 1011.7
20260904025340 66 9 0.0 0.0 0.00 0.00 0.00 93 1011.7
20260904024840 67 9 0.0 0.0 0.00 0.00 0.00 93 1011.7
20260904024338 67 9 0.0 0.0 0.00 0.00 0.00 93 1011.7
20260904023838 67 9 0.0 0.0 0.00 0.00 0.00 92 1011.7
20260904023338 67 9 0.0 0.0 0.00 0.00 0.00 92 1011.6
20260904022834 67 9 0.0 0.0 0.00 0.00 0.00 92 1011.6
20260904022333 67 9 0.0 0.0 0.00 0.00 0.00 91 1011.5
20260904021834 67 9 0.0 0.0 0.00 0.00 0.00 91 1011.5
20260904021333 67 11 0.0 0.0 0.00 0.00 0.00 90 1011.5
20260904020834 68 230 0.0 0.0 0.00 0.00 0.00 90 1011.5
20260904020334 68 230 0.0 0.0 0.00 0.00 0.00 90 1011.7
20260904015834 68 230 0.0 0.0 0.00 0.00 0.00 89 1011.7
20260904015334 69 230 0.0 0.0 0.00 0.00 0.00 89 1011.7
20260904014835 69 230 0.0 0.0 0.00 0.00 0.00 88 1011.7
20260904014335 69 230 0.0 0.0 0.00 0.00 0.00 87 1011.7
20260904013834 70 230 0.0 0.0 0.00 0.00 0.00 87 1011.6
20260904013334 70 230 0.0 0.0 0.00 0.00 0.00 86 1011.5
20260904012834 71 230 0.0 0.0 0.00 0.00 0.00 85 1011.7
20260904012334 71 230 0.0 0.0 0.00 0.00 0.00 85 1011.6
20260904011334 71 228 0.0 1.7 0.00 0.00 0.00 84 1011.6
20260904010334 72 236 0.0 2.6 0.00 0.00 0.00 84 1011.5
20260904005835 72 221 0.0 0.0 0.00 0.00 0.00 83 1011.5
20260904005334 72 246 0.9 5.2 0.00 0.00 0.00 83 1011.5
20260904003333 72 225 1.7 6.1 0.00 0.00 0.00 83 1011.3
20260904002832 73 217 0.9 6.1 0.00 0.00 0.00 83 1011.2
20260904002333 73 205 0.0 6.1 0.00 0.00 0.00 83 1011.1
20260904001832 73 205 0.0 0.0 0.00 0.00 0.00 83 1011.0
20260904001333 73 197 0.0 5.2 0.00 0.00 0.00 83 1011.0
20260904000832 73 236 0.0 5.2 0.00 0.00 0.00 83 1010.9
20260904000332 73 218 0.0 3.5 0.00 0.00 0.00 83 1010.9
20260903235830 73 219 0.9 3.5 0.00 0.00 0.00 82 1010.9
20260903235330 73 232 0.9 3.5 0.00 0.00 0.00 82 1010.7
20260903234329 74 213 1.7 5.2 0.00 0.00 0.00 81 1010.7
20260903233828 74 212 0.9 5.2 0.00 0.00 0.00 82 1010.7
20260903233328 74 223 0.0 3.5 0.00 0.00 0.00 81 1010.5
20260903232828 74 213 0.0 0.9 0.00 0.00 0.00 81 1010.5
20260903232328 74 217 0.0 0.9 0.00 0.00 0.00 81 1010.5
20260903231828 75 196 0.0 0.9 0.00 0.00 0.00 80 1010.4
20260903231328 75 225 0.0 0.9 0.00 0.00 0.00 80 1010.4
20260903230828 75 219 0.0 3.5 0.00 0.00 0.00 79 1010.5
20260903225824 75 212 0.0 2.6 0.00 0.00 0.00 79 1010.5
20260903225324 75 212 0.9 4.3 0.00 0.00 0.00 79 1010.5
20260903224824 75 202 1.7 5.2 0.00 0.00 0.00 79 1010.5
20260903224324 75 187 0.9 5.2 0.00 0.00 0.00 78 1010.6
20260903223824 76 202 0.9 5.2 0.00 0.00 0.00 78 1010.7
20260903223324 76 193 0.9 5.2 0.00 0.00 0.00 78 1010.6
20260903222824 76 209 0.9 5.2 0.00 0.00 0.00 77 1010.6
20260903222324 76 198 1.7 5.2 0.00 0.00 0.00 77 1010.6
20260903221820 76 184 2.6 5.2 0.00 0.00 0.00 77 1010.7
20260903221321 76 211 2.6 5.2 0.00 0.00 0.00 77 1010.6
20260903220820 76 210 1.7 6.1 0.00 0.00 0.00 77 1010.7
20260903220320 76 205 1.7 6.1 0.00 0.00 0.00 76 1010.6
20260903215820 76 202 2.6 6.1 0.00 0.00 0.00 76 1010.7
20260903215320 76 182 2.6 6.1 0.00 0.00 0.00 76 1010.7
20260903214820 77 211 1.7 6.1 0.00 0.00 0.00 77 1010.6
20260903214320 77 161 1.7 4.3 0.00 0.00 0.00 76 1010.7
20260903213821 77 236 2.6 6.1 0.00 0.00 0.00 75 1010.7
20260903213318 77 200 3.5 7.8 0.00 0.00 0.00 74 1010.7
20260903211820 77 186 3.5 7.0 0.00 0.00 0.00 75 1010.8
20260903211319 77 181 3.5 7.0 0.00 0.00 0.00 76 1010.8
20260903210819 78 178 2.6 6.1 0.00 0.00 0.00 77 1010.8
20260903210318 78 190 3.5 7.0 0.00 0.00 0.00 76 1010.9
20260903205819 78 169 3.5 7.0 0.00 0.00 0.00 75 1010.9
20260903205320 78 183 3.5 7.8 0.00 0.00 0.00 75 1011.0
20260903204817 78 185 3.5 7.8 0.00 0.00 0.00 75 1011.0
20260903203317 78 0 0.9 7.0 0.00 0.00 0.00 74 1011.1
20260903202314 78 177 2.6 7.0 0.00 0.00 0.00 74 1011.1
20260903201812 78 202 2.6 7.8 0.00 0.00 0.00 72 1011.1
20260903201311 78 182 3.5 7.8 0.00 0.00 0.00 71 1011.2
20260903200811 79 220 3.5 7.8 0.00 0.00 0.00 71 1011.3
20260903200310 80 208 0.9 7.8 0.00 0.00 0.00 65 1011.2
20260903195811 80 187 0.0 1.7 0.00 0.00 0.00 64 1011.2
20260903195306 80 325 0.0 0.0 0.00 0.00 0.00 64 1011.3
20260903193301 80 63 0.9 7.0 0.00 0.00 0.00 59 1011.2
20260903192800 81 253 1.7 7.0 0.00 0.00 0.00 57 1011.1
20260903192259 82 117 1.7 6.1 0.00 0.00 0.00 57 1011.0
20260903191753 82 162 1.7 7.0 0.00 0.00 0.00 56 1011.1
20260903191247 83 355 2.6 12.2 0.00 0.00 0.00 58 1011.1
20260903190743 82 51 1.7 12.2 0.00 0.00 0.00 57 1011.1
20260903190245 82 192 0.9 6.1 0.00 0.00 0.00 57 1011.1
20260903185744 82 100 0.9 6.1 0.00 0.00 0.00 57 1011.1
20260903185242 82 60 1.7 7.8 0.00 0.00 0.00 58 1011.0
20260903184740 82 236 0.9 7.8 0.00 0.00 0.00 56 1011.2
20260903184240 82 18 1.7 8.7 0.00 0.00 0.00 58 1011.2
20260903183739 82 0 2.6 8.7 0.00 0.00 0.00 57 1011.2
20260903182740 82 340 2.6 7.0 0.00 0.00 0.00 59 1011.3
20260903182237 81 336 2.6 10.4 0.00 0.00 0.00 56 1011.2
20260903181738 81 146 3.5 10.4 0.00 0.00 0.00 59 1011.2
20260903181238 82 348 2.6 8.7 0.00 0.00 0.00 61 1011.1
20260903180238 82 252 1.7 7.0 0.00 0.00 0.00 58 1011.1